Big Piney, WY

5:17 PM MDT on July 20, 2017 (GMT -0600)
Big Piney-Marbleton

Weather History for KBPI - July, 2013

Change the Weather History Date:

Tuesday, July 30, 2013

  Actual Average Record
Temperature  
Mean Temperature 62 °F 63 °F  
Max Temperature 81 °F 82 °F 93 °F (1982)
Min Temperature 42 °F 44 °F 32 °F (1977)
Degree Days  
Heating Degree Days 3 3  
Month to date heating degree days 24 112  
Since 1 June heating degree days 241 417  
Since 1 July heating degree days 24 112  
Cooling Degree Days 0 1  
Month to date cooling degree days 57 22  
Year to date cooling degree days 77 24  
Since 1 June cooling degree days 77 24  
Growing Degree Days 11 (Base 50)    
Moisture  
Dew Point 44 °F    
Average Humidity 62    
Maximum Humidity 100    
Minimum Humidity 24    
Precipitation  
Precipitation 0.02 in 0.03 in 0.40 in (1976)
Month to date precipitation 0.89 0.68  
Year to date precipitation 2.59 3.94  
Sea Level Pressure  
Sea Level Pressure 30.22 in    
Wind  
Wind Speed 8 mph (NNW)    
Max Wind Speed 32 mph    
Max Gust Speed 40 mph    
Visibility 8 miles    
Events Fog , Thunderstorm    
T = Trace of Precipitation, MM = Missing Value Source: NWS Daily Summary

Daily Weather History Graph

Daily Weather History Graph

Search for Another Location

Airport or City:

Trip Planner

Search our weather history database for the weather conditions in past years. The results will help you decide how hot, cold, wet, or windy it might be!

Date:

Astronomy

Jul. 30, 2013 Rise Set
Actual Time 6:10 AM MDT 8:42 PM MDT
Civil Twilight 5:38 AM MDT 9:14 PM MDT
Nautical Twilight 4:58 AM MDT 9:54 PM MDT
Astronomical Twilight 4:13 AM MDT 10:39 PM MDT
Moon 12:31 AM MDT (7/30) 3:05 PM MDT (7/30)
Length of Visible Light 15h 35m
Length of Day
14h 31m
Last Quarter, 40% of the Moon is Illuminated
Jul 30
Last Quarter
Aug 6
New
Aug 14
First Quarter
Aug 20
Full
Aug 28
Last Quarter

Hourly Weather History & Observations

Time (MDT) Temp. Windchill Dew Point Humidity Pressure Visibility Wind Dir Wind Speed Gust Speed Precip Events Conditions
12:53 AM 50.0 °F - 48.0 °F 93% 30.07 in 10.0 mi North 6.9 mph - N/A   Clear
1:53 AM 46.9 °F - 44.1 °F 90% 30.08 in 10.0 mi Calm Calm - N/A   Clear
2:53 AM 45.0 °F 41.8 °F 43.0 °F 93% 30.11 in 10.0 mi NNW 5.8 mph - N/A   Clear
3:48 AM 44.6 °F - 42.8 °F 93% 30.34 in 2.0 mi Calm Calm - N/A   Partly Cloudy
3:50 AM 44.6 °F - 42.8 °F 93% 30.34 in 1.0 mi Calm Calm - N/A   Mist
3:53 AM 45.0 °F - 43.0 °F 93% 30.12 in 0.5 mi Calm Calm - N/A Fog Fog
4:12 AM 44.6 °F 43.1 °F 42.8 °F 93% 30.34 in 2.0 mi NNW 3.5 mph - N/A   Scattered Clouds
4:19 AM 44.6 °F 42.2 °F 42.8 °F 93% 30.35 in 10.0 mi NNW 4.6 mph - N/A   Scattered Clouds
4:53 AM 45.0 °F 43.5 °F 43.0 °F 93% 30.19 in 10.0 mi North 3.5 mph - N/A   Clear
5:14 AM 44.6 °F 43.1 °F 42.8 °F 93% 30.36 in 1.2 mi ESE 3.5 mph - N/A   Partly Cloudy
5:16 AM 44.6 °F - 42.8 °F 93% 30.36 in 0.8 mi Calm Calm - N/A   Mist
5:53 AM 43.0 °F 41.3 °F 42.1 °F 97% 30.19 in 0.5 mi NW 3.5 mph - N/A Fog Fog
6:05 AM 42.8 °F 41.1 °F 41.0 °F 93% 30.37 in 1.0 mi NW 3.5 mph - N/A   Mist
6:16 AM 42.8 °F 41.1 °F 42.8 °F 100% 30.37 in 3.0 mi NNW 3.5 mph - N/A   Mostly Cloudy
6:24 AM 42.8 °F 39.3 °F 41.0 °F 93% 30.37 in 10.0 mi NNW 5.8 mph - N/A   Scattered Clouds
6:53 AM 44.1 °F 41.5 °F 43.0 °F 96% 30.20 in 10.0 mi North 4.6 mph - N/A   Clear
7:34 AM 46.4 °F - 46.4 °F 100% 30.39 in 8.0 mi Calm Calm - N/A   Scattered Clouds
7:53 AM 48.0 °F - 46.0 °F 93% 30.21 in 10.0 mi Calm Calm - N/A   Partly Cloudy
8:53 AM 53.1 °F - 48.9 °F 86% 30.20 in 10.0 mi Calm Calm - N/A   Clear
9:53 AM 57.9 °F - 48.9 °F 72% 30.18 in 10.0 mi Variable 3.5 mph - N/A   Clear
10:53 AM 62.1 °F - 48.9 °F 62% 30.17 in 10.0 mi SSE 6.9 mph - N/A   Clear
11:53 AM 66.0 °F - 50.0 °F 56% 30.17 in 10.0 mi South 5.8 mph - N/A   Clear
12:53 PM 71.1 °F - 52.0 °F 51% 30.13 in 10.0 mi South 5.8 mph - N/A   Clear
1:46 PM 73.4 °F - 50.0 °F 44% 30.36 in 10.0 mi South 8.1 mph - N/A Thunderstorm Partly Cloudy
1:53 PM 75.0 °F - 48.9 °F 40% 30.10 in 10.0 mi SSE 6.9 mph - N/A Thunderstorm Partly Cloudy
2:01 PM 75.2 °F - 48.2 °F 38% 30.36 in 10.0 mi SE 9.2 mph - N/A   Partly Cloudy
2:53 PM 72.0 °F - 48.0 °F 43% 30.11 in 10.0 mi NNW 11.5 mph - 0.02 in Thunderstorm Mostly Cloudy
3:08 PM 73.4 °F - 42.8 °F 33% 30.36 in 10.0 mi WNW 19.6 mph 25.3 mph N/A   Mostly Cloudy
3:53 PM 79.0 °F - 41.0 °F 26% 30.06 in 10.0 mi NW 16.1 mph - N/A   Clear
4:48 PM 80.6 °F - 35.6 °F 20% 30.33 in 10.0 mi WNW 24.2 mph 29.9 mph N/A   Clear
4:53 PM 77.0 °F - 37.9 °F 24% 30.07 in 10.0 mi NW 18.4 mph 29.9 mph N/A   Clear
5:53 PM 73.9 °F - 39.0 °F 28% 30.09 in 10.0 mi North 31.1 mph 38.0 mph N/A   Partly Cloudy
6:53 PM 72.0 °F - 37.9 °F 29% 30.11 in 10.0 mi NNW 23.0 mph 28.8 mph N/A   Clear
7:26 PM 68.0 °F - 39.2 °F 35% 30.35 in 10.0 mi NNW 25.3 mph 40.3 mph N/A Thunderstorm Clear
7:41 PM 66.2 °F - 39.2 °F 37% 30.36 in 10.0 mi NNW 18.4 mph 28.8 mph N/A   Clear
7:53 PM 64.0 °F - 41.0 °F 43% 30.14 in 10.0 mi NNW 15.0 mph - N/A   Clear
8:53 PM 63.0 °F - 43.0 °F 48% 30.14 in 10.0 mi NNW 9.2 mph - N/A   Clear
9:53 PM 62.1 °F - 41.0 °F 46% 30.14 in 10.0 mi NNW 8.1 mph - N/A   Clear
10:53 PM 57.9 °F - 44.1 °F 60% 30.15 in 10.0 mi NNW 10.4 mph - N/A   Clear
11:53 PM 52.0 °F - 44.1 °F 74% 30.16 in 10.0 mi North 3.5 mph - N/A   Clear